Weather History for Whiting Fld NAS, FL

Change the Weather History Date:

Friday, January 25, 2013

  Actual Average Record
Temperature  
Mean Temperature 58 °F -  
Max Temperature 72 °F 59 °F 77 °F (2012)
Min Temperature 44 °F 41 °F 30 °F (2000)
Degree Days  
Heating Degree Days 7    
Growing Degree Days 8 (Base 50)    
Moisture  
Dew Point 48 °F    
Average Humidity 78    
Maximum Humidity 93    
Minimum Humidity 45    
Precipitation  
Precipitation 0.00 in - - ()
Sea Level Pressure  
Sea Level Pressure 30.23 in    
Wind  
Wind Speed 2 mph (SSW)    
Max Wind Speed 18 mph    
Max Gust Speed 26 mph    
Visibility 4 miles    
Events Fog    
Averages and records for this station are not official NWS values.
T = Trace of Precipitation, MM = Missing Value Source: NWS Daily Summary

Daily Weather History Graph

Daily Weather History Graph

Search for Another Location

Airport:

Trip Planner

Search our weather history database for the weather conditions in past years. The results will help you decide how hot, cold, wet, or windy it might be!

Date:

Astronomy

Jan. 25, 2013 Rise Set
Actual Time 6:43 AM CST 5:18 PM CST
Civil Twilight 6:17 AM CST 5:43 PM CST
Nautical Twilight 5:48 AM CST 6:12 PM CST
Astronomical Twilight 5:19 AM CST 6:41 PM CST
Moon 4:14 PM CST (1/25) 5:21 AM CST (1/25)
Length of Visible Light 11h 26m
Length of Day
10h 35m
Waxing Gibbous, 98% of the Moon is Illuminated
Jan 25
Waxing Gibbous
Jan 26
Full
Feb 3
Last Quarter
Feb 10
New
Feb 17
First Quarter

Hourly Weather History & Observations

Time (CST) Temp. Windchill Dew Point Humidity Pressure Visibility Wind Dir Wind Speed Gust Speed Precip Events Conditions
12:07 AM 51.8 °F - 48.2 °F 88% 30.28 in 5.0 mi Calm Calm - N/A   Clear
12:26 AM 50.0 °F - 46.4 °F 87% 30.28 in 2.0 mi Calm Calm - N/A   Clear
12:36 AM 51.8 °F - 46.4 °F 82% 30.28 in 6.0 mi Calm Calm - N/A   Haze
12:43 AM 51.8 °F - 46.4 °F 82% 30.28 in 1.2 mi Calm Calm - N/A   Clear
12:52 AM 51.8 °F - 46.4 °F 82% 30.28 in 0.5 mi Calm Calm - N/A Fog Fog
12:56 AM 51.1 °F - 46.9 °F 86% 30.24 in 0.5 mi Calm Calm - N/A Fog Fog
1:08 AM 51.8 °F - 48.2 °F 88% 30.28 in 2.0 mi Calm Calm - N/A   Clear
1:15 AM 53.6 °F - 48.2 °F 82% 30.28 in 1.2 mi South 3.5 mph - N/A   Haze
1:20 AM 51.8 °F - 48.2 °F 88% 30.27 in 3.0 mi South 3.5 mph - N/A   Clear
1:32 AM 50.0 °F - 46.4 °F 87% 30.27 in 1.5 mi Calm Calm - N/A   Clear
1:52 AM 50.0 °F - 46.4 °F 87% 30.27 in 0.8 mi Calm Calm - N/A   Clear
1:56 AM 51.1 °F - 46.0 °F 83% 30.23 in 0.5 mi Calm Calm - N/A   Haze
2:04 AM 50.0 °F - 46.4 °F 87% 30.26 in 0.2 mi Calm Calm - N/A Fog Fog
2:49 AM 48.2 °F - 46.4 °F 93% 30.26 in 0.2 mi Calm Calm - N/A Fog Fog
2:56 AM 48.9 °F - 45.0 °F 86% 30.22 in 0.2 mi Calm Calm - N/A Fog Fog
3:19 AM 46.4 °F - 42.8 °F 87% 30.26 in 0.2 mi Calm Calm - N/A Fog Fog
3:28 AM 46.4 °F - 42.8 °F 87% 30.25 in 0.2 mi Calm Calm - N/A   Haze
3:56 AM 46.0 °F 44.8 °F 42.1 °F 86% 30.22 in 0.2 mi NE 3.5 mph - N/A Fog Fog
4:56 AM 45.0 °F - 41.0 °F 86% 30.23 in 0.2 mi Calm Calm - N/A Fog Fog
5:25 AM 46.4 °F - 42.8 °F 87% 30.27 in 0.5 mi Calm Calm - N/A Fog Fog
5:43 AM 44.6 °F - 41.0 °F 87% 30.28 in 0.2 mi Calm Calm - N/A Fog Fog
5:56 AM 44.1 °F - 39.9 °F 85% 30.25 in 0.2 mi Calm Calm - N/A Fog Fog
6:35 AM 46.4 °F - 42.8 °F 87% 30.29 in 0.2 mi Calm Calm - N/A Fog Fog
6:56 AM 46.0 °F - 42.1 °F 86% 30.26 in 0.2 mi Calm Calm - N/A Fog Fog
7:32 AM 50.0 °F - 46.4 °F 87% 30.30 in 0.8 mi Calm Calm - N/A   Mostly Cloudy
7:39 AM 51.8 °F - 48.2 °F 88% 30.30 in 2.0 mi Calm Calm - N/A   Mostly Cloudy
7:56 AM 54.0 °F - 50.0 °F 86% 30.27 in 5.0 mi Calm Calm - N/A   Scattered Clouds
8:56 AM 60.1 °F - 53.1 °F 78% 30.27 in 7.0 mi ESE 4.6 mph - N/A   Scattered Clouds
9:56 AM 64.9 °F - 54.0 °F 68% 30.27 in 9.0 mi South 4.6 mph - N/A   Scattered Clouds
10:56 AM 71.1 °F - 53.1 °F 53% 30.23 in 10.0 mi SW 12.7 mph - N/A   Mostly Cloudy
11:56 AM 72.0 °F - 52.0 °F 49% 30.20 in 10.0 mi SW 13.8 mph 20.7 mph N/A   Mostly Cloudy
12:56 PM 72.0 °F - 51.1 °F 48% 30.17 in 10.0 mi SSW 18.4 mph 26.5 mph N/A   Mostly Cloudy
1:56 PM 69.1 °F - 52.0 °F 54% 30.17 in 10.0 mi SSW 12.7 mph - N/A   Mostly Cloudy
2:56 PM 70.0 °F - 50.0 °F 49% 30.16 in 10.0 mi SSW 10.4 mph - N/A   Mostly Cloudy
3:56 PM 71.1 °F - 48.9 °F 45% 30.15 in 10.0 mi SW 12.7 mph 18.4 mph N/A   Mostly Cloudy
4:56 PM 68.0 °F - 51.1 °F 55% 30.14 in 10.0 mi SSW 12.7 mph - N/A   Mostly Cloudy
5:56 PM 64.0 °F - 51.1 °F 63% 30.14 in 10.0 mi SSW 9.2 mph - N/A   Mostly Cloudy
6:56 PM 61.0 °F - 51.1 °F 70% 30.15 in 10.0 mi SSW 5.8 mph - N/A   Mostly Cloudy
7:26 PM - - - N/A% - - North - - N/A   Unknown
7:56 PM 59.0 °F - 52.0 °F 78% 30.15 in 9.0 mi SSW 3.5 mph - N/A   Partly Cloudy
8:56 PM 57.0 °F - 50.0 °F 77% 30.16 in 8.0 mi Calm Calm - N/A   Clear
9:56 PM 57.0 °F - 52.0 °F 83% 30.17 in 6.0 mi SSW 5.8 mph - N/A   Haze
10:56 PM 59.0 °F - 53.1 °F 81% 30.17 in 7.0 mi SW 4.6 mph - 0.00 in   Clear
11:00 PM - - - N/A% - - North - - N/A   Unknown
11:56 PM 55.9 °F - 51.1 °F 84% 30.15 in 6.0 mi SW 5.8 mph - N/A   Haze